| time (UTC) | temp F | wind direction | speed knots | gust knots | rain 1hr in | rain 24hr in | rain mn in | humidity % | barometer mb |
| 20260506062502 | 63 | 85 | 0.0 | 0.0 | 0.00 | 0.00 | 0.00 | 88 | 1017.1 |
| 20260506062008 | 63 | 85 | 0.0 | 0.0 | 0.00 | 0.00 | 0.00 | 88 | 1017.2 |
| 20260506061518 | 63 | 85 | 0.0 | 0.0 | 0.00 | 0.00 | 0.00 | 88 | 1017.2 |
| 20260506061004 | 63 | 85 | 0.0 | 0.0 | 0.00 | 0.00 | 0.00 | 88 | 1017.2 |
| 20260506060505 | 63 | 85 | 0.0 | 0.0 | 0.00 | 0.00 | 0.00 | 88 | 1017.2 |
| 20260506051004 | 64 | 85 | 0.0 | 0.0 | 0.00 | 0.00 | 0.00 | 84 | 1017.7 |
| 20260506050510 | 64 | 85 | 0.0 | 0.0 | 0.00 | 0.00 | 0.00 | 83 | 1017.7 |
| 20260506045004 | 65 | 85 | 0.0 | 0.0 | 0.00 | 0.00 | 0.00 | 82 | 1017.7 |
| 20260506044538 | 65 | 85 | 0.0 | 0.0 | 0.00 | 0.00 | 0.00 | 81 | 1017.8 |
| 20260506044004 | 65 | 85 | 0.0 | 0.0 | 0.00 | 0.00 | 0.00 | 81 | 1017.8 |
| 20260506043508 | 66 | 85 | 0.0 | 0.0 | 0.00 | 0.00 | 0.00 | 81 | 1017.8 |
| 20260506043010 | 66 | 85 | 0.0 | 0.0 | 0.00 | 0.00 | 0.00 | 81 | 1017.7 |
| 20260506042505 | 66 | 85 | 0.0 | 0.0 | 0.00 | 0.00 | 0.00 | 80 | 1017.6 |
| 20260506041514 | 66 | 85 | 0.0 | 0.0 | 0.00 | 0.00 | 0.00 | 80 | 1017.6 |
| 20260506041007 | 66 | 85 | 0.0 | 0.0 | 0.00 | 0.00 | 0.00 | 79 | 1017.7 |
| 20260506040505 | 67 | 85 | 0.0 | 0.0 | 0.00 | 0.00 | 0.00 | 79 | 1017.6 |
| 20260506040016 | 67 | 85 | 0.0 | 0.0 | 0.00 | 0.00 | 0.00 | 79 | 1017.7 |
| 20260506035508 | 67 | 85 | 0.0 | 0.0 | 0.00 | 0.00 | 0.00 | 79 | 1017.7 |
| 20260506035009 | 67 | 85 | 0.0 | 0.0 | 0.00 | 0.00 | 0.00 | 79 | 1017.7 |
| 20260506034511 | 67 | 85 | 0.0 | 0.0 | 0.00 | 0.00 | 0.00 | 79 | 1017.7 |
| 20260506034008 | 67 | 85 | 0.0 | 0.0 | 0.00 | 0.00 | 0.00 | 78 | 1017.7 |
| 20260506033514 | 67 | 85 | 0.0 | 0.0 | 0.00 | 0.00 | 0.00 | 78 | 1017.6 |
| 20260506033010 | 67 | 85 | 0.0 | 0.0 | 0.00 | 0.00 | 0.00 | 78 | 1017.7 |
| 20260506032506 | 67 | 85 | 0.0 | 0.0 | 0.00 | 0.00 | 0.00 | 78 | 1017.9 |
| 20260506032003 | 68 | 85 | 0.0 | 0.0 | 0.00 | 0.00 | 0.00 | 77 | 1017.8 |
| 20260506031523 | 68 | 85 | 0.0 | 0.0 | 0.00 | 0.00 | 0.00 | 77 | 1017.7 |
| 20260506031006 | 68 | 85 | 0.0 | 0.0 | 0.00 | 0.00 | 0.00 | 77 | 1017.7 |
| 20260506030504 | 68 | 85 | 0.0 | 0.0 | 0.00 | 0.00 | 0.00 | 76 | 1017.6 |
| 20260506030018 | 69 | 85 | 0.0 | 0.0 | 0.00 | 0.00 | 0.00 | 75 | 1017.6 |
| 20260506025504 | 69 | 85 | 0.0 | 0.0 | 0.00 | 0.00 | 0.00 | 75 | 1017.7 |
| 20260506025008 | 69 | 85 | 0.0 | 0.0 | 0.00 | 0.00 | 0.00 | 74 | 1017.8 |
| 20260506024529 | 69 | 85 | 0.0 | 0.0 | 0.00 | 0.00 | 0.00 | 74 | 1017.6 |
| 20260506024008 | 70 | 85 | 0.0 | 0.0 | 0.00 | 0.00 | 0.00 | 73 | 1017.5 |
| 20260506023505 | 70 | 85 | 0.0 | 0.0 | 0.00 | 0.00 | 0.00 | 72 | 1017.4 |
| 20260506023020 | 70 | 85 | 0.0 | 0.0 | 0.00 | 0.00 | 0.00 | 72 | 1017.5 |
| 20260506022513 | 70 | 85 | 0.0 | 0.0 | 0.00 | 0.00 | 0.00 | 71 | 1017.6 |
| 20260506022013 | 71 | 85 | 0.0 | 0.0 | 0.00 | 0.00 | 0.00 | 71 | 1017.5 |
| 20260506021516 | 71 | 85 | 0.0 | 0.0 | 0.00 | 0.00 | 0.00 | 70 | 1017.4 |
| 20260506020503 | 72 | 85 | 0.0 | 0.0 | 0.00 | 0.00 | 0.00 | 68 | 1017.3 |
| 20260506015504 | 73 | 85 | 0.0 | 0.0 | 0.00 | 0.00 | 0.00 | 67 | 1017.2 |
| 20260506015010 | 73 | 85 | 0.0 | 0.9 | 0.00 | 0.00 | 0.00 | 67 | 1017.0 |
| 20260506014523 | 73 | 85 | 0.0 | 1.7 | 0.00 | 0.00 | 0.00 | 67 | 1017.0 |
| 20260506014005 | 73 | 85 | 0.0 | 2.6 | 0.00 | 0.00 | 0.00 | 66 | 1016.9 |
| 20260506013510 | 74 | 85 | 0.9 | 2.6 | 0.00 | 0.00 | 0.00 | 66 | 1016.8 |
| 20260506013023 | 74 | 98 | 0.0 | 3.5 | 0.00 | 0.00 | 0.00 | 66 | 1016.6 |
| 20260506012505 | 74 | 115 | 0.9 | 6.1 | 0.00 | 0.00 | 0.00 | 65 | 1016.5 |
| 20260506012010 | 74 | 75 | 1.7 | 6.1 | 0.00 | 0.00 | 0.00 | 65 | 1016.5 |
| 20260506011523 | 75 | 74 | 0.9 | 6.1 | 0.00 | 0.00 | 0.00 | 64 | 1016.4 |
| 20260506011011 | 75 | 109 | 1.7 | 6.1 | 0.00 | 0.00 | 0.00 | 64 | 1016.3 |
| 20260506010511 | 75 | 87 | 1.7 | 5.2 | 0.00 | 0.00 | 0.00 | 63 | 1016.3 |
| 20260506010045 | 75 | 81 | 0.9 | 6.1 | 0.00 | 0.00 | 0.00 | 63 | 1016.2 |
| 20260506005006 | 76 | 94 | 3.5 | 7.8 | 0.00 | 0.00 | 0.00 | 62 | 1016.0 |
| 20260506004515 | 76 | 63 | 2.6 | 7.8 | 0.00 | 0.00 | 0.00 | 61 | 1015.9 |
| 20260506004003 | 77 | 71 | 3.5 | 7.8 | 0.00 | 0.00 | 0.00 | 61 | 1016.0 |
| 20260506003502 | 77 | 121 | 2.6 | 10.4 | 0.00 | 0.00 | 0.00 | 61 | 1015.9 |
| 20260506003005 | 77 | 88 | 6.1 | 13.0 | 0.00 | 0.00 | 0.00 | 60 | 1015.8 |
| 20260506002504 | 78 | 39 | 6.1 | 13.0 | 0.00 | 0.00 | 0.00 | 61 | 1015.7 |
| 20260506001002 | 79 | 94 | 4.3 | 8.7 | 0.00 | 0.00 | 0.00 | 59 | 1015.5 |
| 20260506000505 | 79 | 73 | 4.3 | 12.2 | 0.00 | 0.00 | 0.00 | 58 | 1015.5 |
| 20260505235504 | 81 | 31 | 4.3 | 11.3 | 0.00 | 0.00 | 0.00 | 56 | 1015.3 |
| 20260505235003 | 81 | 90 | 5.2 | 10.4 | 0.00 | 0.00 | 0.00 | 55 | 1015.2 |
| 20260505234506 | 82 | 85 | 3.5 | 9.6 | 0.00 | 0.00 | 0.00 | 54 | 1015.1 |
| 20260505234004 | 82 | 75 | 1.7 | 7.0 | 0.00 | 0.00 | 0.00 | 54 | 1015.1 |
| 20260505233507 | 83 | 74 | 3.5 | 7.8 | 0.00 | 0.00 | 0.00 | 53 | 1015.0 |
| 20260505233008 | 83 | 90 | 3.5 | 7.8 | 0.00 | 0.00 | 0.00 | 52 | 1014.9 |
| 20260505232502 | 84 | 126 | 4.3 | 8.7 | 0.00 | 0.00 | 0.00 | 51 | 1015.0 |
| 20260505232005 | 84 | 148 | 3.5 | 9.6 | 0.00 | 0.00 | 0.00 | 50 | 1015.0 |
| 20260505231507 | 84 | 101 | 4.3 | 9.6 | 0.00 | 0.00 | 0.00 | 49 | 1015.0 |
| 20260505231004 | 85 | 75 | 2.6 | 6.1 | 0.00 | 0.00 | 0.00 | 49 | 1015.0 |
| 20260505230503 | 85 | 77 | 0.9 | 6.1 | 0.00 | 0.00 | 0.00 | 49 | 1015.0 |
| 20260505230024 | 85 | 102 | 1.7 | 7.0 | 0.00 | 0.00 | 0.00 | 47 | 1015.0 |
| 20260505225504 | 86 | 67 | 1.7 | 7.0 | 0.00 | 0.00 | 0.00 | 48 | 1015.1 |
| 20260505225003 | 86 | 77 | 3.5 | 6.1 | 0.00 | 0.00 | 0.00 | 47 | 1015.1 |
| 20260505224003 | 86 | 57 | 1.7 | 7.8 | 0.00 | 0.00 | 0.00 | 46 | 1015.3 |
| 20260505223503 | 87 | 85 | 3.5 | 7.8 | 0.00 | 0.00 | 0.00 | 45 | 1015.2 |
| 20260505223014 | 88 | 76 | 3.5 | 7.0 | 0.00 | 0.00 | 0.00 | 45 | 1015.2 |
| 20260505222508 | 88 | 53 | 2.6 | 8.7 | 0.00 | 0.00 | 0.00 | 45 | 1015.2 |
| 20260505222003 | 88 | 115 | 6.1 | 8.7 | 0.00 | 0.00 | 0.00 | 45 | 1015.1 |
| 20260505221507 | 88 | 53 | 2.6 | 7.0 | 0.00 | 0.00 | 0.00 | 43 | 1015.1 |
| 20260505221004 | 88 | 51 | 3.5 | 7.0 | 0.00 | 0.00 | 0.00 | 43 | 1015.1 |
| 20260505220504 | 88 | 104 | 1.7 | 7.0 | 0.00 | 0.00 | 0.00 | 45 | 1015.1 |
| 20260505220008 | 88 | 86 | 3.5 | 7.8 | 0.00 | 0.00 | 0.00 | 45 | 1015.1 |
| 20260505215504 | 88 | 107 | 2.6 | 8.7 | 0.00 | 0.00 | 0.00 | 45 | 1015.0 |
| 20260505214503 | 90 | 26 | 4.3 | 8.7 | 0.00 | 0.00 | 0.00 | 42 | 1015.1 |
| 20260505214003 | 90 | 113 | 3.5 | 8.7 | 0.00 | 0.00 | 0.00 | 43 | 1015.0 |
| 20260505213502 | 90 | 63 | 2.6 | 7.8 | 0.00 | 0.00 | 0.00 | 44 | 1015.0 |
| 20260505213021 | 89 | 71 | 2.6 | 7.8 | 0.00 | 0.00 | 0.00 | 44 | 1014.9 |
| 20260505212506 | 89 | 87 | 3.5 | 7.8 | 0.00 | 0.00 | 0.00 | 43 | 1014.9 |
| 20260505212008 | 89 | 360 | 3.5 | 7.8 | 0.00 | 0.00 | 0.00 | 41 | 1014.9 |
| 20260505211522 | 89 | 338 | 4.3 | 7.8 | 0.00 | 0.00 | 0.00 | 41 | 1014.9 |
| 20260505211003 | 89 | 18 | 1.7 | 7.8 | 0.00 | 0.00 | 0.00 | 41 | 1014.8 |
| 20260505210503 | 90 | 13 | 0.9 | 7.8 | 0.00 | 0.00 | 0.00 | 42 | 1014.9 |
| 20260505210006 | 90 | 49 | 2.6 | 8.7 | 0.00 | 0.00 | 0.00 | 41 | 1015.0 |
| 20260505205504 | 91 | 352 | 1.7 | 8.7 | 0.00 | 0.00 | 0.00 | 40 | 1014.9 |
| 20260505205007 | 91 | 86 | 2.6 | 8.7 | 0.00 | 0.00 | 0.00 | 41 | 1014.9 |
| 20260505204510 | 91 | 80 | 4.3 | 8.7 | 0.00 | 0.00 | 0.00 | 40 | 1015.0 |
| 20260505204005 | 91 | 93 | 1.7 | 9.6 | 0.00 | 0.00 | 0.00 | 40 | 1015.0 |
| 20260505203503 | 91 | 98 | 0.9 | 10.4 | 0.00 | 0.00 | 0.00 | 42 | 1015.1 |
| 20260505203023 | 90 | 45 | 1.7 | 10.4 | 0.00 | 0.00 | 0.00 | 42 | 1015.1 |
| 20260505202006 | 90 | 38 | 3.5 | 7.8 | 0.00 | 0.00 | 0.00 | 42 | 1015.1 |
| 20260505201510 | 90 | 5 | 0.9 | 7.8 | 0.00 | 0.00 | 0.00 | 44 | 1015.2 |
| 20260505201004 | 91 | 53 | 2.6 | 8.7 | 0.00 | 0.00 | 0.00 | 41 | 1015.2 |
| 20260505200508 | 92 | 39 | 3.5 | 8.7 | 0.00 | 0.00 | 0.00 | 39 | 1015.2 |
| 20260505200005 | 92 | 34 | 3.5 | 7.8 | 0.00 | 0.00 | 0.00 | 40 | 1015.2 |
| 20260505195505 | 92 | 42 | 3.5 | 10.4 | 0.00 | 0.00 | 0.00 | 40 | 1015.2 |
| 20260505195004 | 92 | 89 | 5.2 | 10.4 | 0.00 | 0.00 | 0.00 | 41 | 1015.2 |
| 20260505194508 | 92 | 36 | 4.3 | 10.4 | 0.00 | 0.00 | 0.00 | 39 | 1015.3 |
| 20260505194004 | 92 | 98 | 2.6 | 7.8 | 0.00 | 0.00 | 0.00 | 41 | 1015.3 |
| 20260505193505 | 92 | 57 | 0.9 | 8.7 | 0.00 | 0.00 | 0.00 | 39 | 1015.3 |
| 20260505193012 | 92 | 274 | 0.9 | 8.7 | 0.00 | 0.00 | 0.00 | 43 | 1015.5 |
| 20260505192509 | 92 | 52 | 3.5 | 8.7 | 0.00 | 0.00 | 0.00 | 41 | 1015.5 |
| 20260505192005 | 92 | 55 | 5.2 | 11.3 | 0.00 | 0.00 | 0.00 | 41 | 1015.7 |
| 20260505191516 | 92 | 350 | 3.5 | 11.3 | 0.00 | 0.00 | 0.00 | 41 | 1015.7 |
| 20260505191005 | 92 | 32 | 2.6 | 9.6 | 0.00 | 0.00 | 0.00 | 42 | 1015.8 |
| 20260505190507 | 91 | 335 | 3.5 | 8.7 | 0.00 | 0.00 | 0.00 | 43 | 1015.8 |
| 20260505190022 | 92 | 29 | 4.3 | 9.6 | 0.00 | 0.00 | 0.00 | 43 | 1015.9 |
| 20260505185510 | 92 | 44 | 5.2 | 9.6 | 0.00 | 0.00 | 0.00 | 47 | 1015.8 |
| 20260505185009 | 92 | 44 | 2.6 | 8.7 | 0.00 | 0.00 | 0.00 | 45 | 1015.9 |
| 20260505184510 | 91 | 28 | 3.5 | 9.6 | 0.00 | 0.00 | 0.00 | 43 | 1015.9 |
| 20260505184007 | 91 | 71 | 3.5 | 9.6 | 0.00 | 0.00 | 0.00 | 44 | 1016.0 |
| 20260505183502 | 90 | 59 | 2.6 | 7.8 | 0.00 | 0.00 | 0.00 | 43 | 1016.1 |
| 20260505182503 | 90 | 128 | 4.3 | 8.7 | 0.00 | 0.00 | 0.00 | 46 | 1016.2 |
| 20260505182004 | 89 | 78 | 3.5 | 8.7 | 0.00 | 0.00 | 0.00 | 51 | 1016.3 |
| 20260505181004 | 89 | 104 | 4.3 | 8.7 | 0.00 | 0.00 | 0.00 | 46 | 1016.6 |
| 20260505180508 | 88 | 34 | 2.6 | 10.4 | 0.00 | 0.00 | 0.00 | 49 | 1016.6 |
| 20260505180019 | 88 | 87 | 3.5 | 10.4 | 0.00 | 0.00 | 0.00 | 51 | 1016.6 |
| 20260505175504 | 87 | 136 | 5.2 | 12.2 | 0.00 | 0.00 | 0.00 | 49 | 1016.6 |
| 20260505175006 | 86 | 72 | 4.3 | 12.2 | 0.00 | 0.00 | 0.00 | 52 | 1016.7 |
| 20260505174521 | 86 | 67 | 4.3 | 10.4 | 0.00 | 0.00 | 0.00 | 51 | 1016.8 |
| 20260505174012 | 85 | 42 | 6.1 | 9.6 | 0.00 | 0.00 | 0.00 | 53 | 1016.9 |
| 20260505173503 | 84 | 99 | 2.6 | 9.6 | 0.00 | 0.00 | 0.00 | 55 | 1016.8 |
| 20260505173014 | 83 | 22 | 3.5 | 6.1 | 0.00 | 0.00 | 0.00 | 54 | 1017.0 |
| 20260505172504 | 83 | 343 | 1.7 | 8.7 | 0.00 | 0.00 | 0.00 | 54 | 1017.0 |
| 20260505172003 | 83 | 344 | 2.6 | 8.7 | 0.00 | 0.00 | 0.00 | 53 | 1017.0 |
| 20260505171511 | 83 | 85 | 5.2 | 8.7 | 0.00 | 0.00 | 0.00 | 53 | 1017.1 |
| 20260505171004 | 84 | 81 | 4.3 | 7.8 | 0.00 | 0.00 | 0.00 | 51 | 1017.2 |
| 20260505170509 | 84 | 16 | 2.6 | 10.4 | 0.00 | 0.00 | 0.00 | 50 | 1017.1 |
| 20260505170017 | 85 | 120 | 2.6 | 10.4 | 0.00 | 0.00 | 0.00 | 53 | 1017.1 |
| 20260505165509 | 85 | 26 | 5.2 | 10.4 | 0.00 | 0.00 | 0.00 | 52 | 1017.1 |
| 20260505165004 | 85 | 34 | 3.5 | 9.6 | 0.00 | 0.00 | 0.00 | 53 | 1017.2 |
| 20260505164519 | 84 | 54 | 5.2 | 11.3 | 0.00 | 0.00 | 0.00 | 54 | 1017.2 |
| 20260505164004 | 84 | 13 | 5.2 | 11.3 | 0.00 | 0.00 | 0.00 | 52 | 1017.2 |
| 20260505163508 | 84 | 49 | 4.3 | 11.3 | 0.00 | 0.00 | 0.00 | 52 | 1017.2 |
| 20260505163025 | 83 | 42 | 4.3 | 10.4 | 0.00 | 0.00 | 0.00 | 53 | 1017.2 |
| 20260505162505 | 83 | 82 | 4.3 | 8.7 | 0.00 | 0.00 | 0.00 | 54 | 1017.3 |
| 20260505162008 | 83 | 50 | 2.6 | 8.7 | 0.00 | 0.00 | 0.00 | 55 | 1017.3 |
| 20260505161522 | 82 | 74 | 1.7 | 11.3 | 0.00 | 0.00 | 0.00 | 54 | 1017.3 |
| 20260505161007 | 83 | 41 | 6.1 | 11.3 | 0.00 | 0.00 | 0.00 | 53 | 1017.3 |
| 20260505160510 | 83 | 103 | 5.2 | 10.4 | 0.00 | 0.00 | 0.00 | 53 | 1017.2 |
| 20260505153014 | 84 | 109 | 4.3 | 10.4 | 0.00 | 0.00 | 0.00 | 55 | 1017.3 |
| 20260505152004 | 84 | 100 | 5.2 | 10.4 | 0.00 | 0.00 | 0.00 | 56 | 1017.3 |
| 20260505151004 | 83 | 116 | 2.6 | 9.6 | 0.00 | 0.00 | 0.00 | 56 | 1017.4 |
| 20260505150507 | 83 | 63 | 5.2 | 10.4 | 0.00 | 0.00 | 0.00 | 56 | 1017.4 |
| 20260505140505 | 78 | 117 | 5.2 | 12.2 | 0.00 | 0.00 | 0.00 | 66 | 1016.8 |
| 20260505125004 | 71 | 74 | 4.3 | 8.7 | 0.00 | 0.00 | 0.00 | 80 | 1017.0 |
| 20260505124513 | 71 | 111 | 3.5 | 7.8 | 0.00 | 0.00 | 0.00 | 81 | 1017.0 |
| 20260505124003 | 71 | 100 | 2.6 | 7.8 | 0.00 | 0.00 | 0.00 | 82 | 1017.0 |
| 20260505123503 | 71 | 72 | 1.7 | 7.0 | 0.00 | 0.00 | 0.00 | 82 | 1017.0 |
| 20260505122507 | 70 | 76 | 2.6 | 7.0 | 0.00 | 0.00 | 0.00 | 85 | 1017.1 |
| 20260505122004 | 69 | 108 | 1.7 | 7.0 | 0.00 | 0.00 | 0.00 | 86 | 1017.1 |
| 20260505121518 | 69 | 78 | 0.9 | 3.5 | 0.00 | 0.00 | 0.00 | 87 | 1017.1 |
| 20260505121006 | 69 | 77 | 0.0 | 5.2 | 0.00 | 0.00 | 0.00 | 88 | 1017.1 |
| 20260505120504 | 68 | 36 | 1.7 | 5.2 | 0.00 | 0.00 | 0.00 | 89 | 1017.1 |
| 20260505120038 | 68 | 71 | 2.6 | 5.2 | 0.00 | 0.00 | 0.00 | 89 | 1016.9 |
| 20260505115508 | 67 | 61 | 1.7 | 5.2 | 0.00 | 0.00 | 0.00 | 90 | 1016.8 |
| 20260505115003 | 67 | 92 | 0.9 | 5.2 | 0.00 | 0.00 | 0.00 | 91 | 1016.7 |
| 20260505114002 | 66 | 63 | 0.0 | 2.6 | 0.00 | 0.00 | 0.00 | 91 | 1016.5 |
| 20260505113505 | 66 | 71 | 0.0 | 2.6 | 0.00 | 0.00 | 0.00 | 91 | 1016.4 |
| 20260505113007 | 66 | 68 | 0.9 | 3.5 | 0.00 | 0.00 | 0.00 | 92 | 1016.3 |
| 20260505112507 | 66 | 67 | 0.0 | 3.5 | 0.00 | 0.00 | 0.00 | 92 | 1016.2 |
| 20260505112009 | 65 | 66 | 0.9 | 3.5 | 0.00 | 0.00 | 0.00 | 92 | 1016.0 |
| 20260505111009 | 65 | 26 | 0.0 | 1.7 | 0.00 | 0.00 | 0.00 | 91 | 1016.1 |
| 20260505110508 | 65 | 26 | 0.0 | 1.7 | 0.00 | 0.00 | 0.00 | 91 | 1016.1 |
| 20260505102010 | 65 | 78 | 0.0 | 2.6 | 0.00 | 0.00 | 0.00 | 93 | 1015.7 |
| 20260505101522 | 64 | 40 | 0.0 | 3.5 | 0.00 | 0.00 | 0.00 | 93 | 1015.8 |
| 20260505101010 | 64 | 50 | 0.9 | 4.3 | 0.00 | 0.00 | 0.00 | 94 | 1015.7 |
| 20260505100508 | 64 | 55 | 0.0 | 4.3 | 0.00 | 0.00 | 0.00 | 94 | 1015.6 |
| 20260505100022 | 64 | 64 | 0.0 | 3.5 | 0.00 | 0.00 | 0.00 | 94 | 1015.6 |
| 20260505095508 | 63 | 51 | 0.9 | 2.6 | 0.00 | 0.00 | 0.00 | 95 | 1015.5 |
| 20260505095013 | 63 | 58 | 0.9 | 2.6 | 0.00 | 0.00 | 0.00 | 94 | 1015.4 |
| 20260505094528 | 62 | 42 | 0.0 | 2.6 | 0.00 | 0.00 | 0.00 | 93 | 1015.4 |
| 20260505094006 | 62 | 92 | 0.0 | 2.6 | 0.00 | 0.00 | 0.00 | 92 | 1015.4 |
| 20260505093510 | 62 | 92 | 0.0 | 0.9 | 0.00 | 0.00 | 0.00 | 91 | 1015.4 |
| 20260505093026 | 62 | 92 | 0.0 | 0.9 | 0.00 | 0.00 | 0.00 | 91 | 1015.3 |
| 20260505092504 | 62 | 92 | 0.0 | 0.0 | 0.00 | 0.00 | 0.00 | 91 | 1015.3 |
| 20260505092008 | 62 | 92 | 0.0 | 0.0 | 0.00 | 0.00 | 0.00 | 91 | 1015.4 |
| 20260505091525 | 62 | 92 | 0.0 | 0.0 | 0.00 | 0.00 | 0.00 | 91 | 1015.4 |
| 20260505091004 | 63 | 92 | 0.0 | 0.0 | 0.00 | 0.00 | 0.00 | 91 | 1015.4 |
| 20260505090503 | 63 | 92 | 0.0 | 0.0 | 0.00 | 0.00 | 0.00 | 91 | 1015.3 |
| 20260505090035 | 63 | 92 | 0.0 | 0.0 | 0.00 | 0.00 | 0.00 | 90 | 1015.3 |
| 20260505085510 | 63 | 92 | 0.0 | 0.0 | 0.00 | 0.00 | 0.00 | 90 | 1015.3 |
| 20260505085010 | 63 | 92 | 0.0 | 0.0 | 0.00 | 0.00 | 0.00 | 90 | 1015.3 |
| 20260505084520 | 63 | 92 | 0.0 | 0.0 | 0.00 | 0.00 | 0.00 | 90 | 1015.2 |
| 20260505084007 | 63 | 92 | 0.0 | 0.0 | 0.00 | 0.00 | 0.00 | 89 | 1015.4 |
| 20260505083512 | 64 | 92 | 0.0 | 0.0 | 0.00 | 0.00 | 0.00 | 89 | 1015.4 |
| 20260505083017 | 64 | 92 | 0.0 | 0.0 | 0.00 | 0.00 | 0.00 | 89 | 1015.3 |
| 20260505082508 | 64 | 92 | 0.0 | 0.0 | 0.00 | 0.00 | 0.00 | 89 | 1015.2 |
| 20260505082010 | 64 | 92 | 0.0 | 0.0 | 0.00 | 0.00 | 0.00 | 89 | 1015.1 |
| 20260505081533 | 64 | 92 | 0.0 | 1.7 | 0.00 | 0.00 | 0.00 | 89 | 1015.1 |
| 20260505081005 | 64 | 92 | 0.0 | 1.7 | 0.00 | 0.00 | 0.00 | 89 | 1015.2 |
| 20260505080506 | 64 | 92 | 0.0 | 0.9 | 0.00 | 0.00 | 0.00 | 89 | 1015.2 |
| 20260505080017 | 64 | 91 | 0.0 | 2.6 | 0.00 | 0.00 | 0.00 | 89 | 1015.2 |
| 20260505075503 | 64 | 89 | 0.0 | 2.6 | 0.00 | 0.00 | 0.00 | 89 | 1015.2 |
| 20260505075007 | 64 | 72 | 0.9 | 2.6 | 0.00 | 0.00 | 0.00 | 89 | 1015.4 |
| 20260505074524 | 64 | 73 | 0.0 | 3.5 | 0.00 | 0.00 | 0.00 | 89 | 1015.4 |
| 20260505074007 | 64 | 75 | 0.9 | 3.5 | 0.00 | 0.00 | 0.00 | 89 | 1015.4 |
| 20260505073040 | 64 | 82 | 0.0 | 1.7 | 0.00 | 0.00 | 0.00 | 88 | 1015.5 |
| 20260505072513 | 64 | 109 | 0.0 | 0.9 | 0.00 | 0.00 | 0.00 | 88 | 1015.5 |
| 20260505072007 | 65 | 111 | 0.0 | 0.9 | 0.00 | 0.00 | 0.00 | 87 | 1015.5 |
| 20260505071521 | 65 | 114 | 0.0 | 0.0 | 0.00 | 0.00 | 0.00 | 86 | 1015.4 |
| 20260505071007 | 65 | 114 | 0.0 | 0.0 | 0.00 | 0.00 | 0.00 | 86 | 1015.4 |
| 20260505070512 | 65 | 114 | 0.0 | 0.0 | 0.00 | 0.00 | 0.00 | 86 | 1015.4 |